Omaha, IA

10:23 AM CDT on April 27, 2017 (GMT -0500)
Eppley Airfield

Weather History for KOMA - November, 2012

Change the Weather History Date:

Tuesday, November 27, 2012

  Actual Average Record
Temperature  
Mean Temperature 30 °F 33 °F  
Max Temperature 44 °F 42 °F 67 °F (1998)
Min Temperature 15 °F 23 °F -14 °F (1887)
Degree Days  
Heating Degree Days 35 32  
Month to date heating degree days 571 685  
Since 1 July heating degree days 1091 1170  
Cooling Degree Days 0 0  
Month to date cooling degree days 0 0  
Year to date cooling degree days 1649 1112  
Moisture  
Dew Point 18 °F    
Average Humidity 67    
Maximum Humidity 88    
Minimum Humidity 45    
Precipitation  
Precipitation 0.00 in 0.04 in 2.16 in (1983)
Month to date precipitation 0.38 1.50  
Year to date precipitation 20.76 29.44  
Snow  
Snow 0.00 in 0.10 in - ()
Month to date snowfall T 2.0  
Since 1 July snowfall T 2.3  
Snow Depth 0.00 in    
Sea Level Pressure  
Sea Level Pressure 30.35 in    
Wind  
Wind Speed 7 mph (South)    
Max Wind Speed 20 mph    
Max Gust Speed 25 mph    
Visibility 10 miles    
Events      
T = Trace of Precipitation, MM = Missing Value Source: NWS Daily Summary

Daily Weather History Graph

Daily Weather History Graph

Search for Another Location

Airport or City:

Trip Planner

Search our weather history database for the weather conditions in past years. The results will help you decide how hot, cold, wet, or windy it might be!

Date:

Astronomy

Nov. 27, 2012 Rise Set
Actual Time 7:26 AM CST 4:56 PM CST
Civil Twilight 6:55 AM CST 5:26 PM CST
Nautical Twilight 6:21 AM CST 6:00 PM CST
Astronomical Twilight 5:48 AM CST 6:34 PM CST
Moon 4:28 PM CST 6:31 AM CST
Length of Visible Light 10h 31m
Length of Day
9h 30m
Waxing Gibbous, 99% of the Moon is Illuminated
Nov 27
Waxing Gibbous
Nov 28
Full
Dec 6
Last Quarter
Dec 13
New
Dec 19
First Quarter

Hourly Weather History & Observations

Time (CST) Temp. Windchill Dew Point Humidity Pressure Visibility Wind Dir Wind Speed Gust Speed Precip Events Conditions
12:52 AM 18.0 °F 11.1 °F 12.0 °F 78% 30.49 in 10.0 mi SSE 4.6 mph - N/A   Clear
1:52 AM 17.1 °F 8.7 °F 10.9 °F 77% 30.50 in 10.0 mi SSE 5.8 mph - N/A   Clear
2:52 AM 16.0 °F 7.4 °F 10.9 °F 81% 30.49 in 10.0 mi SSE 5.8 mph - N/A   Clear
3:52 AM 16.0 °F 7.4 °F 12.0 °F 84% 30.46 in 9.0 mi SSE 5.8 mph - N/A   Clear
4:52 AM 16.0 °F 6.3 °F 10.9 °F 81% 30.44 in 9.0 mi SSE 6.9 mph - N/A   Partly Cloudy
5:52 AM 16.0 °F 6.3 °F 12.0 °F 84% 30.43 in 9.0 mi SSE 6.9 mph - N/A   Partly Cloudy
6:52 AM 17.1 °F 6.6 °F 12.0 °F 81% 30.43 in 9.0 mi SSE 8.1 mph - N/A   Partly Cloudy
7:52 AM 18.0 °F 7.7 °F 12.9 °F 81% 30.42 in 7.0 mi SSE 8.1 mph - N/A   Scattered Clouds
8:52 AM 21.0 °F 9.9 °F 15.1 °F 78% 30.40 in 7.0 mi SSE 10.4 mph - N/A   Mostly Cloudy
9:52 AM 25.0 °F 16.3 °F 18.0 °F 75% 30.40 in 10.0 mi SSE 8.1 mph - N/A   Mostly Cloudy
10:52 AM 30.0 °F 20.0 °F 18.0 °F 61% 30.38 in 10.0 mi South 12.7 mph - N/A   Mostly Cloudy
11:52 AM 33.1 °F 24.9 °F 19.0 °F 56% 30.32 in 10.0 mi South 10.4 mph - N/A   Mostly Cloudy
12:52 PM 37.0 °F 28.5 °F 19.9 °F 50% 30.28 in 10.0 mi South 13.8 mph - N/A   Mostly Cloudy
1:52 PM 37.9 °F 29.2 °F 21.9 °F 53% 30.24 in 10.0 mi South 15.0 mph - N/A   Mostly Cloudy
2:52 PM 42.1 °F 36.1 °F 23.0 °F 47% 30.22 in 10.0 mi SSW 10.4 mph 25.3 mph N/A   Overcast
3:52 PM 42.1 °F 35.7 °F 23.0 °F 47% 30.22 in 10.0 mi SSW 11.5 mph - N/A   Overcast
4:52 PM 43.0 °F 38.2 °F 24.1 °F 47% 30.23 in 10.0 mi SW 8.1 mph - N/A   Overcast
5:52 PM 39.9 °F 35.8 °F 23.0 °F 51% 30.25 in 10.0 mi South 5.8 mph - N/A   Mostly Cloudy
6:52 PM 34.0 °F 29.8 °F 23.0 °F 64% 30.26 in 10.0 mi South 4.6 mph - N/A   Scattered Clouds
7:52 PM 30.9 °F 27.5 °F 23.0 °F 72% 30.28 in 10.0 mi SSE 3.5 mph - N/A   Clear
8:52 PM 28.0 °F - 23.0 °F 81% 30.30 in 10.0 mi Calm Calm - N/A   Partly Cloudy
9:52 PM 28.0 °F 24.2 °F 21.9 °F 78% 30.31 in 10.0 mi NW 3.5 mph - N/A   Partly Cloudy
10:52 PM 28.9 °F - 24.1 °F 82% 30.32 in 10.0 mi Calm Calm - N/A   Partly Cloudy
11:52 PM 26.1 °F - 21.9 °F 84% 30.33 in 9.0 mi Calm Calm - N/A   Partly Cloudy